Estación de Algarrobo Bajo INIA

Ultimos registro cada 15 minutos 89
Estación Fecha / Hora Temperatura Humedad Lluvia Velocidad Dirección Radiación Presion
89 Algarrobo Bajo INIA 30-08-2026 22:00 13,1 87,2 0 0 0 0 0
88 Algarrobo Bajo INIA 30-08-2026 21:45 13,3 86 0 0,6 243 0 0
87 Algarrobo Bajo INIA 30-08-2026 21:30 13 87,3 0 0,7 260 0 0
86 Algarrobo Bajo INIA 30-08-2026 21:15 13 87,6 0 0,7 237 0 0
85 Algarrobo Bajo INIA 30-08-2026 21:00 13,3 86,7 0 0,3 237 0 0
84 Algarrobo Bajo INIA 30-08-2026 20:45 13,7 84,6 0 0,1 230 0 0
83 Algarrobo Bajo INIA 30-08-2026 20:30 13,7 83,8 0 0,7 249 0 0
82 Algarrobo Bajo INIA 30-08-2026 20:15 13,6 84,3 0 1,1 245 0 0
81 Algarrobo Bajo INIA 30-08-2026 20:00 13,7 80,6 0 0,2 246 0 0
80 Algarrobo Bajo INIA 30-08-2026 19:45 13,9 78,5 0 0,4 247 0 0
79 Algarrobo Bajo INIA 30-08-2026 19:30 13,8 79 0 0,7 254 0,1 0
78 Algarrobo Bajo INIA 30-08-2026 19:15 14,1 78,5 0 0,2 229 0,1 0
77 Algarrobo Bajo INIA 30-08-2026 19:00 14,5 76,6 0 1 249 0 0
76 Algarrobo Bajo INIA 30-08-2026 18:45 14,9 73,8 0 1,4 244 0,8 0
75 Algarrobo Bajo INIA 30-08-2026 18:30 15,5 71,8 0 1 245 4,7 0
74 Algarrobo Bajo INIA 30-08-2026 18:15 16,3 66,1 0 0,4 276 19,9 0
73 Algarrobo Bajo INIA 30-08-2026 18:00 16,8 63 0 0,7 247 36,6 0
72 Algarrobo Bajo INIA 30-08-2026 17:45 17,8 62,6 0 2,3 286 60,7 0
71 Algarrobo Bajo INIA 30-08-2026 17:30 18,5 56,8 0 2,4 317 187 0
70 Algarrobo Bajo INIA 30-08-2026 17:15 18,7 57,3 0 2,5 333 222,5 0
69 Algarrobo Bajo INIA 30-08-2026 17:00 19,1 55,3 0 2,9 336 264,5 0
68 Algarrobo Bajo INIA 30-08-2026 16:45 19,5 53,1 0 2,7 339 313,3 0
67 Algarrobo Bajo INIA 30-08-2026 16:30 19,8 52,5 0 2,6 340 365,9 0
66 Algarrobo Bajo INIA 30-08-2026 16:15 20 48,5 0 2,8 338 409,5 0
65 Algarrobo Bajo INIA 30-08-2026 16:00 20,3 46,6 0 2,7 347 453,6 0
64 Algarrobo Bajo INIA 30-08-2026 15:45 20,4 44,4 0 2,8 336 483,9 0
63 Algarrobo Bajo INIA 30-08-2026 15:30 21 41,9 0 2,1 309 521,7 0
62 Algarrobo Bajo INIA 30-08-2026 15:15 21 42,4 0 2,3 314 556,6 0
61 Algarrobo Bajo INIA 30-08-2026 15:00 20,9 40,1 0 2,5 307 591,9 0
60 Algarrobo Bajo INIA 30-08-2026 14:45 20,9 39,1 0 2,6 313 636 0
59 Algarrobo Bajo INIA 30-08-2026 14:30 21 36,9 0 2,6 305 673,3 0
58 Algarrobo Bajo INIA 30-08-2026 14:15 20,8 39,9 0 2,7 305 678,3 0
57 Algarrobo Bajo INIA 30-08-2026 14:00 20,8 42,2 0 2,8 307 716,5 0
56 Algarrobo Bajo INIA 30-08-2026 13:45 20,6 43,3 0 2,7 307 698,7 0
55 Algarrobo Bajo INIA 30-08-2026 13:30 20,4 43,6 0 2,6 313 697,4 0
54 Algarrobo Bajo INIA 30-08-2026 13:15 20,4 46 0 2,4 314 689,7 0
53 Algarrobo Bajo INIA 30-08-2026 13:00 20,4 44,4 0 2,2 309 704,7 0
52 Algarrobo Bajo INIA 30-08-2026 12:45 20 47,7 0 2,6 293 704,4 0
51 Algarrobo Bajo INIA 30-08-2026 12:30 19,9 51,4 0 2,3 284 700,2 0
50 Algarrobo Bajo INIA 30-08-2026 12:15 19,6 52,5 0 2,1 282 692,3 0
49 Algarrobo Bajo INIA 30-08-2026 12:00 19,3 49,6 0 1,8 280 681,1 0
48 Algarrobo Bajo INIA 30-08-2026 11:45 19 50,6 0 1,8 322 665,9 0
47 Algarrobo Bajo INIA 30-08-2026 11:30 18,2 53,2 0 1,1 288 648,7 0
46 Algarrobo Bajo INIA 30-08-2026 11:15 17,2 61,6 0 0,6 62 624,9 0
45 Algarrobo Bajo INIA 30-08-2026 11:00 16,5 63,9 0 0,4 130 598,5 0
44 Algarrobo Bajo INIA 30-08-2026 10:45 15,7 66,3 0 0,6 139 569,8 0
43 Algarrobo Bajo INIA 30-08-2026 10:30 14,5 72,2 0 0,7 166 536,7 0
42 Algarrobo Bajo INIA 30-08-2026 10:15 13,5 74,8 0 0,6 202 501 0
41 Algarrobo Bajo INIA 30-08-2026 10:00 12,4 78,6 0 0,8 187 462,5 0
40 Algarrobo Bajo INIA 30-08-2026 09:45 11,6 83,5 0 0,7 182 423,3 0
39 Algarrobo Bajo INIA 30-08-2026 09:30 11 87 0 0,3 199 381,4 0
38 Algarrobo Bajo INIA 30-08-2026 09:15 9,9 92,8 0 0,2 171 338,9 0
37 Algarrobo Bajo INIA 30-08-2026 09:00 9,2 94,1 0 0,1 173 295,8 0
36 Algarrobo Bajo INIA 30-08-2026 08:45 8,5 95,9 0 0 0 244,7 0
35 Algarrobo Bajo INIA 30-08-2026 08:30 7,7 97 0 0 69 195,5 0
34 Algarrobo Bajo INIA 30-08-2026 08:15 7,3 96,9 0 0 0 144,7 0
33 Algarrobo Bajo INIA 30-08-2026 08:00 6,7 97,5 0 0 0 89,5 0
32 Algarrobo Bajo INIA 30-08-2026 07:45 6 96,9 0 0 0 46,6 0
31 Algarrobo Bajo INIA 30-08-2026 07:30 5,1 97 0 0 0 25,4 0
30 Algarrobo Bajo INIA 30-08-2026 07:15 4,9 96,1 0 0 0 5,4 0
29 Algarrobo Bajo INIA 30-08-2026 07:00 5,1 96 0 0 0 1,5 0
28 Algarrobo Bajo INIA 30-08-2026 06:45 5 96 0 0 0 0,4 0
27 Algarrobo Bajo INIA 30-08-2026 06:30 5,2 96 0 0 0 0,4 0
26 Algarrobo Bajo INIA 30-08-2026 06:15 5,5 96 0 0 0 0,4 0
25 Algarrobo Bajo INIA 30-08-2026 06:00 5,4 96 0 0 0 0,4 0
24 Algarrobo Bajo INIA 30-08-2026 05:45 5,6 95,6 0 0 0 0,4 0
23 Algarrobo Bajo INIA 30-08-2026 05:30 5,7 95,8 0 0 0 0,4 0
22 Algarrobo Bajo INIA 30-08-2026 05:15 5,7 95,2 0 0 354 0,4 0
21 Algarrobo Bajo INIA 30-08-2026 05:00 5,6 95 0 0 0 0,4 0
20 Algarrobo Bajo INIA 30-08-2026 04:45 5,4 95,2 0 0 0 0,4 0
19 Algarrobo Bajo INIA 30-08-2026 04:30 6,2 94,2 0 0 0 0,4 0
18 Algarrobo Bajo INIA 30-08-2026 04:15 6,2 94,6 0 0 0 0,4 0
17 Algarrobo Bajo INIA 30-08-2026 04:00 6,4 93,6 0 0 0 0,4 0
16 Algarrobo Bajo INIA 30-08-2026 03:45 6,8 93,2 0 0 0 0,3 0
15 Algarrobo Bajo INIA 30-08-2026 03:30 6,9 93,5 0 0 0 0,2 0
14 Algarrobo Bajo INIA 30-08-2026 03:15 7,3 92,5 0 0 0 0,2 0
13 Algarrobo Bajo INIA 30-08-2026 03:00 7,6 92,2 0 0 50 0,2 0
12 Algarrobo Bajo INIA 30-08-2026 02:45 7,4 92,9 0 0 0 0,2 0
11 Algarrobo Bajo INIA 30-08-2026 02:30 8,4 90,7 0 0 0 0,1 0
10 Algarrobo Bajo INIA 30-08-2026 02:15 9 91,6 0 0 0 0 0
9 Algarrobo Bajo INIA 30-08-2026 02:00 8,9 91,1 0 0,3 45 0 0
8 Algarrobo Bajo INIA 30-08-2026 01:45 8,8 91,5 0 0,4 44 0 0
7 Algarrobo Bajo INIA 30-08-2026 01:30 8,9 91,3 0 0,4 46 0 0
6 Algarrobo Bajo INIA 30-08-2026 01:15 9,2 91,2 0 0,1 334 0 0
5 Algarrobo Bajo INIA 30-08-2026 01:00 9 90,5 0 0,4 59 0 0
4 Algarrobo Bajo INIA 30-08-2026 00:45 10,1 87,5 0 0,2 284 0 0
3 Algarrobo Bajo INIA 30-08-2026 00:30 10,2 86,7 0 0,8 278 0 0
2 Algarrobo Bajo INIA 30-08-2026 00:15 10,2 84,5 0 0,9 279 0 0
1 Algarrobo Bajo INIA 30-08-2026 00:00 10 82,2 0 1 312 0 0